Theta_e
359 358 358 357 357 357 357 357 357 357 357 357 356 356 357 357 357 356 355 356 356 356 357 357 357 356 357 357 357 358 359 359 359 360 359 358 358 357 355 354 354 353
359 359 358 358 359 359 358 357 356 357 358 358 357 356 358 358 357 357 356 356 356 356 357 358 357 357 356 357 358 359 359 359 358 358 359 359 359 357 355 354 352 353
359 359 359 358 358 358 357 357 357 357 356 357 357 357 357 357 358 358 357 356 356 356 357 358 357 357 356 357 359 359 359 360 358 358 360 359 359 358 357 354 353 352
358 359 359 358 358 357 357 357 357 356 355 356 356 356 357 357 358 359 358 357 357 358 358 358 359 358 357 357 358 359 359 360 359 359 360 359 359 359 357 355 354 353
357 358 358 358 358 358 358 358 357 356 355 356 355 356 358 358 358 358 358 357 358 358 359 359 359 359 358 358 358 359 360 359 359 359 360 359 360 359 357 356 357 356
356 357 357 358 359 358 358 358 357 357 356 356 355 355 357 358 358 357 358 358 357 357 358 358 359 359 359 359 359 360 361 359 360 363 362 361 361 359 358 358 359 358
355 356 356 357 357 358 357 357 358 357 357 357 356 357 357 357 357 357 358 358 358 358 357 358 360 361 360 360 361 361 361 360 362 364 363 361 362 361 360 359 360 359
354 354 355 354 355 357 356 356 357 358 358 357 357 357 357 357 357 357 358 359 358 358 359 359 361 361 360 360 361 362 361 359 359 362 362 361 363 362 360 359 360 359
353 352 353 352 352 354 355 355 356 357 358 358 357 357 357 357 357 357 358 359 359 361 362 362 362 361 360 361 361 362 361 360 359 361 362 361 362 362 361 360 360 359
354 352 351 350 349 350 352 353 354 355 356 356 356 356 357 357 357 357 360 361 360 362 363 362 362 361 361 361 361 361 361 361 361 360 361 361 360 361 361 361 360 359
354 352 350 349 347 347 348 349 350 351 353 353 353 354 356 358 358 358 360 361 360 360 361 362 362 362 362 361 360 360 360 360 361 361 361 360 360 360 360 360 359 359
354 352 350 349 348 347 346 347 347 347 349 350 350 352 354 356 358 358 360 361 360 360 361 362 362 362 362 361 360 360 360 360 360 360 360 360 359 359 358 358 359 359
357 355 352 350 349 349 347 347 347 346 347 347 347 349 352 353 355 357 358 359 359 359 359 360 361 361 362 362 360 359 359 360 359 358 358 359 358 357 356 356 357 358
358 357 356 353 352 352 351 350 349 348 347 347 348 348 349 350 351 353 355 356 357 357 357 357 359 360 361 362 361 359 359 359 359 358 357 357 358 357 356 355 355 356
360 359 359 358 356 356 356 355 353 352 351 351 351 351 350 349 349 350 352 354 354 354 355 355 356 358 359 359 359 360 359 358 358 358 357 356 356 357 356 355 355 353
361 360 361 362 360 359 358 358 356 355 354 354 354 354 352 352 352 352 352 352 354 354 354 354 354 354 356 356 355 356 357 358 358 358 358 358 357 357 356 355 354 353
359 359 360 362 362 361 361 361 360 359 358 357 356 356 355 356 355 354 353 351 351 352 352 352 352 353 355 355 352 350 352 355 357 357 357 358 356 355 355 353 352 352
356 355 356 357 358 360 361 361 361 362 362 360 359 358 357 357 355 355 355 353 351 351 349 350 353 354 354 353 351 349 348 351 353 354 354 354 353 353 354 353 352 352
354 354 354 353 354 357 359 360 360 361 361 360 358 358 357 357 355 355 356 354 353 353 352 354 355 353 351 350 348 348 347 348 351 353 352 351 352 353 354 355 356 356
353 353 352 352 353 354 355 357 357 356 356 356 356 356 356 356 355 354 355 355 355 356 355 355 353 350 348 348 347 348 347 347 350 353 351 351 353 354 354 355 357 357
352 353 352 352 352 352 352 353 353 352 353 353 354 354 354 356 355 354 355 355 356 357 355 351 350 349 349 348 348 348 347 347 351 353 351 350 354 356 357 358 358 358
353 352 351 351 351 350 349 349 349 350 350 350 350 350 352 355 355 354 355 355 355 356 352 347 347 349 350 349 350 350 348 349 354 356 354 353 355 357 357 357 357 358
349 348 348 348 348 347 346 346 346 347 347 346 347 349 351 353 353 352 353 353 353 352 349 344 343 347 348 348 349 350 350 352 356 358 357 356 356 357 357 356 356 356
344 343 344 344 344 343 343 344 344 344 345 345 346 348 349 349 350 350 350 349 348 346 344 340 340 342 345 346 348 349 350 353 356 357 356 358 358 357 357 357 356 355
342 342 342 341 341 341 342 342 342 343 343 344 344 345 345 345 346 346 345 343 342 341 340 337 336 337 339 341 345 347 349 352 353 353 354 356 356 355 355 357 356 354
342 342 342 341 341 342 342 342 341 341 341 340 340 340 340 340 340 341 341 341 340 339 338 335 334 334 335 336 338 341 345 347 348 349 351 352 351 350 352 354 353 351
Wind_Speed
10 9 9 8 8 6 6 6 6 6 6 6 5 5 5 5 5 5 5 5 5 5 5 4 4 4 4 4 5 4 4 4 4 3 3 3 3 3 3 3 4 4
12 10 9 9 8 7 7 7 6 6 5 5 5 4 4 4 5 5 5 6 6 6 5 5 4 5 5 5 5 5 5 5 5 4 3 3 3 3 4 4 4 4
13 12 11 10 9 9 8 8 7 6 6 6 6 6 5 5 5 5 6 6 6 6 6 5 5 5 6 6 5 5 5 5 5 5 4 4 4 4 4 4 4 4
14 13 12 11 10 9 8 8 7 7 7 6 6 7 6 5 5 6 6 7 7 6 6 6 6 6 6 6 6 6 5 6 6 5 5 5 5 5 5 5 4 4
15 14 13 11 10 9 8 8 8 8 8 7 7 7 7 6 6 7 7 8 8 8 7 7 7 7 7 7 7 7 6 6 6 6 6 6 6 6 6 5 5 5
14 14 13 12 11 10 9 9 9 9 9 9 8 8 8 8 8 8 8 9 9 9 8 8 8 8 7 8 8 7 6 6 4 5 5 6 6 6 5 5 5 5
14 14 14 13 12 12 11 10 9 9 9 9 9 9 8 9 9 9 9 9 9 9 8 8 8 7 7 8 8 8 7 7 5 5 6 6 6 6 6 5 5 6
14 14 14 14 14 13 12 11 11 10 10 9 9 9 9 9 10 10 9 9 9 8 8 8 7 7 8 8 8 8 8 8 7 7 7 7 6 6 6 6 6 6
15 14 14 15 15 14 13 13 12 12 11 11 10 10 10 10 10 10 10 9 9 8 8 8 8 8 8 8 7 7 7 7 7 7 7 7 7 7 7 6 6 6
15 15 15 15 16 15 14 14 13 13 12 12 11 10 10 10 10 10 10 10 9 9 9 8 8 8 9 8 8 8 8 8 7 7 8 8 8 7 7 6 6 6
15 15 15 15 16 16 15 15 14 13 12 12 12 12 10 10 10 10 10 10 10 10 10 10 9 9 9 9 9 8 8 8 8 8 8 8 8 8 7 7 7 7
14 14 14 15 15 15 15 14 14 14 13 13 13 13 12 11 11 11 11 11 11 10 10 10 10 10 10 9 9 9 9 9 9 8 8 8 8 8 8 8 8 7
14 14 13 13 14 14 13 13 14 14 14 13 13 13 13 12 12 12 11 11 11 11 11 11 10 10 10 10 10 9 9 9 9 9 9 8 8 8 8 8 8 8
15 14 13 12 12 12 12 12 12 13 13 13 13 13 14 13 13 12 12 12 12 12 11 11 11 11 11 10 10 10 9 10 9 9 9 8 8 8 8 8 8 9
14 13 12 12 12 11 11 11 12 12 12 12 12 12 13 13 12 12 11 11 11 11 11 11 11 11 11 11 10 9 9 9 9 9 9 8 8 8 8 8 8 9
13 12 11 10 11 11 11 11 11 12 12 11 11 11 11 11 11 11 10 10 10 10 11 11 11 11 12 12 11 9 9 9 8 8 8 8 8 8 8 9 9 9
12 11 11 10 10 10 10 10 10 9 10 10 10 10 10 9 10 10 10 11 10 10 11 11 11 10 11 12 12 11 10 9 9 10 9 9 9 10 9 9 10 9
12 12 12 11 10 10 10 9 8 7 7 7 8 9 9 9 9 9 10 10 9 10 10 9 8 10 12 12 12 12 11 11 11 11 11 11 11 10 10 9 9 9
13 13 13 13 12 10 8 7 7 6 6 6 6 6 7 8 9 9 9 9 9 9 7 5 7 11 12 12 12 12 11 11 11 11 11 11 11 10 10 9 8 8
12 12 13 14 13 11 9 9 9 8 8 9 9 8 6 8 10 10 9 9 8 7 5 5 9 10 9 10 10 10 10 10 10 11 12 11 10 10 9 9 8 8
12 12 13 14 13 12 12 13 13 13 12 13 15 15 12 10 10 10 9 8 7 6 4 3 6 8 7 8 9 9 9 9 8 10 11 10 9 8 7 7 7 8
11 11 12 12 12 12 13 15 16 16 16 15 15 14 12 10 9 9 8 6 5 6 5 2 2 5 6 6 7 7 8 7 7 9 9 9 8 6 6 6 5 5
11 12 12 12 12 12 13 14 14 14 14 14 14 12 11 10 9 8 8 8 7 7 6 3 1 4 4 5 6 6 6 7 7 7 7 7 7 6 5 4 4 4
15 15 15 14 13 13 13 13 13 13 14 14 15 15 14 14 13 11 9 9 8 7 6 5 3 1 2 3 5 6 7 6 6 7 7 7 6 6 4 3 3 4
16 16 16 16 14 14 14 14 14 14 15 15 15 16 16 15 14 13 13 12 10 9 8 8 7 6 3 2 1 3 5 3 3 6 6 5 5 5 4 1 2 2
15 15 15 17 18 17 16 15 16 16 16 16 16 16 16 16 14 14 15 13 9 8 9 9 9 9 7 6 5 3 2 2 1 1 2 3 4 5 3 1 0 1
Wind_Direction
195 194 194 195 198 203 207 207 210 212 216 216 211 207 205 204 206 204 204 202 201 203 201 203 210 206 204 205 204 206 212 220 224 222 229 252 278 289 286 282 287 293
198 197 195 195 195 199 204 208 212 215 219 224 219 209 202 202 205 207 209 208 205 203 203 208 212 209 208 208 209 213 217 223 229 231 232 246 263 270 274 276 274 277
199 199 198 198 197 199 202 204 210 216 218 218 215 208 203 201 201 204 208 205 204 204 206 210 210 208 211 210 211 219 223 226 232 235 236 246 255 258 259 265 270 268
201 201 202 203 202 200 203 203 202 207 213 212 207 205 203 202 198 198 201 200 204 207 207 210 210 205 207 210 215 223 226 229 235 238 245 251 252 256 256 254 260 264
202 203 204 205 205 202 202 203 201 201 205 205 205 205 205 205 202 197 197 198 202 210 210 208 208 206 207 208 214 222 228 231 230 229 241 253 254 254 254 250 249 255
201 203 205 205 205 204 203 204 204 203 202 202 204 207 205 205 206 202 198 198 202 208 210 207 206 208 207 207 212 217 225 231 222 213 230 247 251 253 254 252 250 253
202 203 205 207 205 205 207 207 204 204 205 203 203 205 204 200 201 203 202 204 206 207 208 205 203 209 209 207 212 214 220 227 219 215 229 239 242 247 250 248 249 253
205 204 204 208 208 206 208 207 204 202 202 204 204 203 202 199 198 200 202 205 209 207 208 205 202 209 214 212 214 216 220 225 221 219 227 232 235 239 241 240 240 246
205 206 205 207 208 209 209 207 204 202 202 206 208 204 202 203 202 199 198 202 208 205 204 207 205 210 216 215 217 220 226 232 229 224 227 230 232 234 234 235 235 238
205 207 208 207 208 209 211 210 206 202 203 206 211 210 205 205 206 203 198 198 205 205 204 208 209 210 214 215 219 223 228 235 234 231 233 235 235 236 236 234 236 238
202 206 209 209 210 209 210 213 212 209 206 207 211 212 207 205 207 206 203 202 206 208 207 209 210 212 216 219 220 221 223 227 230 230 233 235 236 238 239 238 240 241
202 205 208 209 211 212 212 213 215 216 214 213 213 213 210 207 206 206 207 208 210 211 210 211 213 216 219 222 224 222 221 224 227 229 231 234 236 237 237 237 238 238
200 203 206 209 210 213 214 214 215 217 219 219 218 216 214 213 211 209 208 210 213 215 215 215 216 218 219 223 226 225 222 225 228 228 229 230 233 237 239 237 235 236
196 202 206 211 211 212 216 217 217 218 220 222 222 220 220 220 219 216 213 214 217 219 222 220 218 220 221 221 226 228 227 227 229 232 232 231 232 234 237 237 236 235
189 193 198 206 209 211 214 217 219 220 220 221 223 225 226 227 228 227 222 221 222 223 228 229 225 223 222 220 222 225 230 232 232 234 237 238 239 240 240 240 239 239
182 181 181 189 201 206 210 214 218 219 220 220 221 226 231 230 230 232 230 228 227 227 230 232 233 230 223 221 224 225 230 236 235 236 241 243 245 246 246 244 243 244
179 179 175 178 190 196 201 208 213 216 220 220 221 224 227 228 229 232 235 234 232 231 231 232 234 230 221 225 237 243 241 242 241 239 239 241 242 243 246 247 247 248
186 191 190 192 197 196 195 201 205 209 215 219 224 225 222 224 230 231 233 234 233 234 236 232 226 226 229 238 250 255 250 247 246 245 242 241 241 242 245 250 252 253
188 193 196 199 202 199 195 194 189 191 203 210 217 227 228 227 226 224 226 230 232 233 232 225 227 233 241 247 250 251 249 245 245 248 248 246 245 245 247 250 256 258
190 193 197 198 198 195 189 181 175 180 193 195 189 191 210 225 223 219 219 221 221 215 203 219 234 237 242 244 243 245 245 241 244 248 249 247 246 248 250 251 254 259
193 196 199 198 193 184 180 181 181 182 185 188 191 190 194 207 214 212 212 214 209 192 169 201 234 230 233 239 239 245 246 245 250 253 252 250 245 245 249 253 258 264
185 186 189 192 186 173 169 174 181 185 186 191 195 190 183 188 195 196 198 201 194 176 152 120 224 224 231 238 238 244 248 249 254 258 257 254 249 246 249 252 260 267
154 153 155 162 162 153 149 155 162 171 181 188 182 165 156 162 165 165 177 178 166 156 143 113 161 226 240 247 247 247 245 248 255 259 260 257 250 249 252 252 254 264
127 128 133 137 139 138 138 144 150 154 164 171 163 148 142 144 143 138 136 133 123 120 117 104 100 129 244 253 253 244 234 244 262 260 258 259 253 251 254 252 251 254
118 123 128 128 128 130 132 139 147 149 150 150 144 138 134 134 135 130 115 103 99 99 93 87 87 82 62 36 307 232 215 228 285 271 259 263 266 265 268 253 242 270
109 112 116 118 122 126 128 135 139 137 135 133 127 124 124 124 125 121 112 106 104 100 88 82 84 80 65 56 56 63 135 126 40 316 285 313 308 290 279 254 177 359